Wind_Speed
2 3 2 1 1 2 2 2 2 1 1 2 3 4 4 5 5 5 6 6 6 6 6 6 6 5 5 5 5 5 5 4 5 5 5 4 4 4 4 5 5 6 6
2 2 1 1 1 3 3 3 3 3 2 0 1 2 2 3 3 3 3 4 4 4 4 4 4 4 3 3 3 3 3 4 3 3 4 4 4 4 4 4 5 5 6
2 2 2 2 3 4 4 5 5 4 3 2 1 0 0 1 1 1 1 1 2 2 2 2 1 1 1 1 1 2 2 3 3 3 3 3 3 4 4 4 4 5 6
3 2 2 3 4 5 5 6 6 6 5 4 3 3 2 1 1 1 1 1 1 1 1 1 1 1 1 2 2 2 2 2 3 3 3 3 3 3 4 4 4 5 5
3 4 4 4 5 6 6 7 7 7 6 6 5 4 4 4 4 3 3 4 4 4 4 4 4 4 4 4 3 4 4 4 4 4 4 4 4 4 4 4 4 5 5
4 4 5 5 6 7 8 8 8 8 8 7 7 7 6 6 6 5 5 6 6 7 7 7 6 6 7 6 6 6 6 6 6 6 6 6 6 6 6 6 5 5 5
5 5 6 7 8 9 9 10 10 10 10 10 9 9 9 8 8 8 8 8 9 9 9 9 9 9 9 9 8 8 8 8 8 8 8 8 8 8 8 7 7 7 7
6 7 8 9 10 10 11 11 12 12 12 12 12 11 11 11 10 10 10 10 11 11 11 11 11 11 11 11 10 10 10 10 10 10 10 10 10 10 10 10 9 9 8
9 10 11 11 12 12 13 13 13 13 14 14 13 13 13 13 12 12 12 12 12 12 12 12 13 13 12 13 13 13 12 12 12 12 13 13 12 12 12 12 11 11 10
11 12 12 14 14 15 15 15 15 15 16 16 15 15 15 15 14 14 13 13 13 13 13 13 13 14 14 14 14 15 15 15 15 15 15 15 15 15 15 15 14 14 13
14 14 14 16 16 17 17 17 18 18 18 18 18 17 17 17 17 16 15 14 15 15 15 15 15 15 15 16 16 16 17 17 17 17 17 18 18 18 17 17 17 17 16
16 17 18 18 18 19 19 20 20 21 21 21 20 20 20 19 19 18 18 17 16 17 16 16 16 16 17 18 18 19 19 20 20 19 19 20 21 21 20 20 20 19 19
19 19 20 19 20 21 22 22 23 23 22 22 23 23 23 23 22 21 20 19 19 19 18 17 18 19 18 18 19 20 20 21 22 23 22 21 22 23 23 22 22 22 21
20 21 22 22 22 23 23 23 24 24 23 23 23 24 25 25 24 23 23 22 21 21 20 20 20 20 20 20 20 21 22 22 23 23 23 24 24 24 25 25 25 25 24
21 22 22 23 23 24 24 25 25 25 26 25 24 24 23 22 20 21 23 24 22 21 21 21 21 22 21 21 21 21 22 22 23 24 24 25 26 26 27 27 27 27 27
20 21 21 22 23 23 23 24 24 24 25 24 23 22 22 21 21 22 23 23 23 22 23 23 22 23 23 23 23 22 22 23 24 25 26 27 27 29 29 29 30 29 29
19 19 20 21 21 21 20 19 20 19 20 21 21 20 19 20 22 22 23 23 22 23 23 24 24 24 23 24 23 23 22 23 24 25 27 28 28 29 31 31 31 32 31
18 18 18 18 18 17 17 17 17 16 15 16 18 19 18 19 21 22 23 24 24 24 24 24 24 25 25 25 24 24 24 24 24 25 27 27 28 30 32 33 32 33 33
18 16 16 16 15 15 14 14 15 14 14 14 16 17 20 22 23 23 24 25 25 26 26 26 26 27 27 27 26 25 25 25 25 26 27 27 28 29 32 34 35 34 34
15 14 13 14 14 14 14 15 15 15 15 16 18 19 20 22 24 25 26 27 28 28 28 28 28 29 29 28 28 27 27 27 27 27 27 27 28 29 31 33 35 36 36
13 13 13 13 14 14 15 16 16 16 17 18 20 21 22 23 25 26 27 28 29 30 30 30 30 30 30 30 30 29 29 29 28 29 28 29 29 30 32 33 35 35 36
10 11 12 13 14 15 16 17 18 19 20 21 22 23 24 25 26 27 28 30 30 31 31 32 32 31 31 31 31 31 30 30 30 30 30 30 30 31 33 35 34 36 37
9 10 12 13 14 16 17 18 19 21 22 23 24 25 26 27 27 28 29 30 30 31 31 32 32 32 32 32 33 33 32 32 32 31 32 32 31 32 33 35 35 35 37
9 11 12 13 15 16 18 19 21 22 23 25 26 27 27 28 28 29 30 30 30 31 32 32 33 33 33 34 34 34 34 34 34 33 33 34 33 33 34 35 36 36 37
10 12 13 14 16 18 19 21 23 24 25 26 27 27 28 28 29 30 30 31 31 32 32 33 33 34 34 35 35 35 36 36 36 36 35 35 35 35 35 36 36 37 37
11 13 15 17 19 20 22 23 24 25 26 27 27 27 28 29 30 30 31 31 32 32 32 33 34 34 35 35 35 36 36 37 37 37 37 37 37 37 37 36 37 38 38
Wind_Direction
45 56 65 51 355 327 320 320 328 352 51 92 96 96 94 90 88 88 87 84 83 82 80 77 77 79 82 84 87 91 96 99 103 107 109 110 114 119 122 125 132 135 138
20 38 34 343 301 294 290 287 291 299 304 339 85 94 95 94 94 95 92 87 86 87 85 82 80 83 88 90 94 100 106 109 111 117 122 124 126 130 132 133 137 138 144
337 350 344 311 290 282 279 278 280 286 291 296 298 274 141 111 105 106 107 108 99 98 99 99 102 102 113 121 122 122 130 136 140 148 147 144 140 143 148 147 148 151 150
316 315 309 294 281 276 278 277 277 279 281 283 282 271 251 245 254 254 247 241 238 231 234 239 239 233 222 208 200 198 189 181 177 181 178 173 167 164 163 161 160 163 161
311 309 302 288 277 274 276 274 275 275 273 273 272 267 261 258 257 256 260 262 265 266 265 263 263 264 260 249 235 227 223 217 211 206 202 195 191 188 182 176 173 176 178
315 311 299 291 280 275 273 273 273 271 269 268 268 266 265 265 262 262 264 268 269 270 272 270 269 268 266 261 252 245 238 232 227 223 218 211 206 202 198 193 187 184 187
307 311 300 291 284 276 273 274 273 270 268 267 267 266 266 267 265 264 265 268 271 272 272 272 270 267 266 263 258 252 247 240 235 230 226 221 216 211 208 204 198 194 191
308 306 298 290 285 279 274 273 272 271 268 266 266 266 266 266 265 264 263 265 267 270 271 270 269 268 266 263 259 254 250 246 240 235 231 227 222 218 215 213 208 203 199
302 300 296 288 283 279 275 270 270 270 268 265 264 265 266 266 264 265 266 267 268 269 269 270 269 269 267 264 261 257 253 248 244 240 235 232 228 223 219 217 214 209 205
290 291 292 286 282 277 274 271 269 267 267 265 263 264 265 265 264 264 265 268 269 269 270 270 268 266 266 265 262 258 254 252 247 243 238 235 233 229 224 221 218 215 210
288 287 287 280 280 277 275 274 271 269 267 264 263 264 265 265 265 266 266 268 269 270 271 269 267 265 264 263 261 258 255 252 249 247 243 238 235 233 229 225 222 218 215
288 287 287 282 280 278 275 274 271 269 268 264 261 261 263 264 265 265 266 268 272 275 274 272 270 271 265 264 261 259 256 253 249 248 246 242 237 234 231 228 225 222 218
288 286 285 280 277 276 275 274 273 272 269 266 262 260 261 262 263 264 266 269 273 276 274 273 274 273 270 268 263 258 257 256 252 248 247 244 240 235 233 230 227 225 222
286 283 281 276 274 274 273 273 272 270 269 267 266 266 264 264 264 265 266 269 274 275 274 275 275 274 272 269 269 263 261 260 253 249 247 244 242 238 235 233 229 226 225
285 282 280 275 273 275 273 274 272 269 269 267 266 267 266 266 269 273 271 270 273 275 276 275 274 277 277 275 275 270 264 261 257 252 248 246 242 239 237 235 232 227 226
282 282 281 276 275 276 277 275 274 274 269 270 270 269 266 268 272 274 278 277 275 277 275 275 276 278 276 275 276 275 268 263 258 254 250 248 245 240 238 236 234 231 228
281 282 281 280 277 278 278 279 282 281 276 272 270 268 271 272 275 277 278 279 278 278 277 275 275 277 276 275 275 273 271 266 264 258 253 250 246 241 238 236 234 233 230
285 286 286 285 285 288 286 286 288 288 286 282 276 272 277 279 281 280 279 277 277 279 280 277 276 278 277 276 274 270 268 268 266 261 255 251 248 244 239 236 234 233 233
281 284 286 290 294 296 296 298 301 302 301 294 287 283 280 280 281 281 280 279 279 278 278 279 278 277 276 274 273 271 269 267 266 264 257 253 250 246 241 238 236 235 234
279 285 292 297 299 300 304 307 306 307 304 299 294 292 288 285 284 283 280 279 279 279 278 277 277 276 275 273 271 270 268 266 264 262 258 254 251 247 242 238 236 236 236
279 285 293 299 301 302 305 305 305 305 304 301 297 293 289 286 284 283 281 280 279 279 278 277 276 274 272 271 269 268 266 264 262 260 258 255 251 247 243 239 237 236 235
290 293 297 300 302 303 304 306 307 307 305 302 298 294 291 288 286 284 283 282 281 280 278 277 276 273 271 269 267 265 264 262 261 259 257 255 251 248 243 240 238 236 235
301 302 305 306 306 307 308 308 307 305 302 300 298 297 295 292 290 288 286 285 283 281 279 277 275 273 271 268 266 264 262 260 259 257 257 254 251 248 244 240 238 237 236
312 311 311 310 309 309 308 307 305 303 302 301 300 299 297 295 293 291 289 287 285 282 280 278 276 274 271 268 266 263 261 259 257 255 255 254 251 249 244 240 239 238 236
313 312 311 311 311 310 309 308 307 306 304 303 301 300 299 297 295 294 292 290 287 284 281 279 276 274 272 269 267 264 261 259 257 254 252 252 251 249 246 242 240 239 238
314 313 313 313 313 313 312 310 308 307 306 305 304 303 301 300 298 296 295 293 290 287 284 281 278 275 272 270 267 264 262 259 257 254 251 250 249 248 245 243 241 240 238
Height
5920 5919 5919 5918 5917 5917 5917 5916 5916 5916 5915 5914 5914 5913 5912 5912 5911 5911 5910 5910 5910 5909 5909 5909 5909 5908 5908 5908 5907 5907 5907 5906 5906 5906 5906 5906 5906 5906 5906 5906 5906 5907 5907
5919 5919 5918 5918 5917 5917 5916 5916 5916 5915 5915 5914 5914 5913 5912 5912 5911 5911 5911 5910 5910 5910 5909 5909 5909 5909 5908 5908 5908 5908 5907 5907 5907 5907 5907 5907 5907 5907 5907 5907 5907 5907 5908
5918 5917 5917 5917 5917 5917 5916 5916 5915 5915 5914 5914 5913 5913 5912 5912 5912 5911 5911 5910 5910 5910 5910 5910 5909 5909 5909 5908 5908 5908 5907 5907 5907 5907 5907 5907 5907 5907 5908 5908 5908 5908 5909
5916 5916 5916 5916 5916 5916 5915 5915 5915 5914 5914 5913 5913 5912 5912 5911 5911 5911 5910 5910 5910 5910 5910 5909 5909 5909 5909 5908 5908 5908 5908 5907 5907 5907 5908 5908 5908 5908 5908 5908 5908 5909 5909
5915 5915 5915 5915 5915 5915 5915 5914 5914 5913 5913 5912 5912 5911 5911 5910 5910 5910 5910 5909 5909 5909 5909 5909 5909 5908 5908 5908 5908 5907 5907 5907 5907 5907 5907 5907 5908 5908 5908 5909 5909 5909 5910
5914 5913 5913 5913 5913 5913 5913 5913 5913 5912 5911 5911 5910 5910 5910 5909 5909 5909 5908 5908 5908 5908 5908 5908 5907 5907 5907 5907 5907 5907 5907 5907 5907 5907 5907 5907 5907 5908 5908 5909 5909 5910 5910
5912 5912 5911 5911 5911 5911 5911 5911 5911 5910 5910 5909 5909 5909 5908 5908 5908 5907 5907 5907 5906 5906 5906 5906 5906 5905 5905 5905 5905 5906 5906 5906 5906 5906 5906 5906 5907 5907 5908 5909 5909 5910 5910
5910 5910 5909 5909 5909 5909 5908 5908 5908 5908 5908 5907 5907 5907 5906 5906 5906 5905 5905 5905 5904 5904 5904 5903 5903 5903 5903 5903 5903 5904 5904 5904 5904 5904 5905 5905 5906 5906 5907 5908 5909 5909 5910
5908 5907 5907 5906 5906 5906 5905 5905 5905 5905 5905 5904 5904 5904 5904 5903 5903 5903 5902 5902 5902 5901 5901 5901 5901 5901 5901 5901 5901 5901 5902 5902 5903 5903 5903 5904 5904 5905 5906 5907 5908 5908 5909
5906 5905 5904 5904 5903 5903 5903 5902 5902 5902 5902 5901 5901 5901 5900 5900 5900 5899 5899 5899 5899 5898 5898 5898 5898 5898 5898 5898 5898 5899 5899 5899 5900 5900 5901 5902 5902 5903 5904 5905 5906 5907 5908
5903 5902 5902 5901 5900 5900 5900 5899 5899 5898 5898 5898 5898 5897 5897 5896 5896 5896 5895 5895 5895 5895 5894 5894 5894 5894 5894 5894 5895 5895 5895 5896 5896 5897 5898 5899 5900 5901 5902 5903 5904 5905 5906
5900 5899 5899 5898 5898 5897 5896 5895 5895 5894 5894 5894 5893 5893 5893 5892 5892 5892 5891 5891 5891 5891 5890 5890 5890 5890 5890 5890 5890 5891 5891 5892 5892 5893 5894 5895 5896 5897 5899 5900 5901 5903 5904
5897 5896 5895 5894 5894 5893 5892 5892 5891 5890 5889 5889 5889 5888 5888 5887 5887 5887 5887 5887 5886 5886 5886 5885 5885 5885 5885 5885 5886 5886 5886 5887 5887 5888 5890 5891 5892 5893 5895 5896 5898 5899 5901
5893 5892 5891 5890 5889 5889 5888 5887 5886 5885 5885 5884 5883 5883 5882 5882 5882 5882 5882 5882 5882 5881 5881 5880 5880 5880 5880 5880 5880 5881 5881 5881 5882 5883 5884 5886 5887 5889 5890 5892 5893 5895 5897
5889 5888 5887 5886 5885 5884 5883 5882 5882 5880 5880 5879 5878 5877 5876 5876 5877 5877 5877 5877 5877 5876 5876 5876 5875 5875 5875 5875 5875 5875 5875 5876 5876 5877 5879 5880 5882 5884 5885 5887 5888 5890 5893
5885 5884 5882 5881 5881 5880 5879 5878 5877 5875 5874 5873 5873 5872 5872 5872 5872 5872 5872 5871 5871 5871 5871 5870 5870 5870 5870 5869 5869 5869 5869 5870 5871 5872 5873 5874 5876 5878 5879 5881 5883 5885 5887
5881 5880 5878 5877 5876 5876 5875 5873 5872 5869 5868 5868 5868 5868 5868 5868 5868 5867 5867 5866 5866 5866 5865 5865 5864 5864 5864 5864 5864 5864 5864 5864 5865 5866 5866 5868 5869 5871 5873 5875 5877 5880 5882
5877 5876 5874 5872 5872 5871 5870 5869 5868 5866 5864 5864 5864 5863 5863 5863 5863 5862 5862 5861 5861 5860 5859 5859 5858 5858 5858 5858 5857 5857 5858 5858 5859 5859 5860 5861 5863 5864 5866 5868 5871 5873 5876
5873 5872 5871 5869 5868 5868 5867 5866 5865 5863 5862 5861 5860 5860 5859 5859 5858 5857 5856 5855 5855 5854 5853 5853 5852 5852 5851 5851 5850 5850 5851 5852 5852 5852 5853 5854 5856 5857 5859 5862 5864 5867 5870
5870 5869 5868 5867 5865 5864 5864 5863 5862 5861 5859 5858 5857 5855 5854 5853 5852 5851 5850 5849 5848 5847 5846 5846 5845 5844 5844 5844 5844 5844 5844 5844 5845 5845 5846 5847 5849 5851 5852 5854 5857 5860 5863
5867 5866 5865 5864 5863 5863 5862 5860 5859 5857 5855 5854 5852 5850 5849 5848 5847 5845 5844 5842 5841 5840 5839 5838 5837 5837 5836 5836 5836 5837 5837 5837 5838 5838 5839 5841 5842 5843 5845 5847 5850 5853 5856
5864 5864 5863 5862 5861 5860 5858 5856 5854 5852 5850 5849 5847 5845 5844 5842 5840 5838 5837 5835 5833 5832 5830 5829 5829 5828 5828 5828 5828 5828 5829 5830 5830 5831 5832 5833 5834 5836 5838 5840 5842 5845 5849
5862 5861 5860 5858 5857 5856 5854 5852 5850 5848 5846 5844 5842 5839 5837 5835 5833 5831 5829 5827 5825 5823 5822 5821 5820 5819 5819 5819 5819 5819 5820 5821 5822 5823 5824 5825 5826 5828 5830 5832 5835 5838 5841
5859 5858 5857 5855 5854 5852 5850 5848 5846 5843 5841 5838 5835 5833 5830 5827 5825 5822 5820 5818 5816 5814 5813 5812 5811 5810 5810 5810 5810 5810 5811 5811 5812 5814 5816 5816 5818 5820 5822 5824 5827 5830 5833
5857 5856 5854 5852 5851 5848 5846 5843 5841 5838 5835 5832 5829 5826 5823 5820 5817 5814 5812 5809 5807 5805 5804 5803 5802 5801 5800 5800 5800 5800 5801 5802 5803 5805 5807 5808 5809 5811 5813 5816 5819 5821 5824
5854 5853 5851 5849 5847 5844 5841 5838 5835 5832 5829 5825 5822 5819 5816 5812 5809 5806 5803 5801 5799 5797 5795 5793 5792 5791 5790 5790 5790 5790 5791 5792 5793 5794 5797 5798 5800 5802 5804 5807 5810 5813 5816